User: anonymous   Login
Location: Chenango Forks
(42.2242°N, 75.8278°W)
Time: 04:17:36
(UTC-04:00)
Language:

Coronas F rocket - Orbit

View from above orbital plane
View from above orbital plane
View from above satellite
View from above satellite

Ground track
Ground track

The orbit data is extracted from the following two-line orbital elements,

1 26874U 01032B   16122.83131026  .00028877  00000-0  16318-3 0  9993
2 26874  82.4607 332.5753 0007722  29.5929 330.5773 15.78911840828323
Epoch (UTC): 01 May 2016 19:57:05
Eccentricity: 0.0007722
inclination: 82.4607°
perigee height: 328 km
apogee height: 339 km
right ascension of ascending node: 332.5753°
argument of perigee: 29.5929°
revolutions per day: 15.78911840
mean anomaly at epoch: 330.5773°
orbit number at epoch: 82832

The dashed part of the orbit path shows where the satellite is in the earth's shadow,  

DLR